Hourly Weather Bashtanivka

Today, 19 June, Saturday

Time Temperature Precipitation Wind Pressure Humidity
00:00 +18°C° 0.5 mm 9 mps 756 mmHg 88%
01:00 +18°C° 0.5 mm 9 mps 756 mmHg 89%
02:00 +18°C° 0.5 mm 9 mps 755 mmHg 90%
03:00 +18°C° 0.6 mm 8 mps 756 mmHg 89%
04:00 +18°C° 0.6 mm 8 mps 756 mmHg 89%
05:00 +18°C° 0.6 mm 7 mps 756 mmHg 89%
06:00 +20°C° 0.4 mm 7 mps 756 mmHg 86%
07:00 +20°C° 0.4 mm 7 mps 756 mmHg 84%
08:00 +20°C° 0.4 mm 7 mps 757 mmHg 81%
09:00 +21°C° 0.2 mm 7 mps 757 mmHg 75%
10:00 +22°C° 0.2 mm 7 mps 757 mmHg 70%
11:00 +23°C° 0.2 mm 7 mps 757 mmHg 64%
12:00 +24°C° 0 mm 7 mps 757 mmHg 63%
13:00 +24°C° 0 mm 7 mps 757 mmHg 62%
14:00 +24°C° 0 mm 6 mps 757 mmHg 61%
15:00 +23°C° 0.1 mm 4 mps 757 mmHg 65%
16:00 +24°C° 0.1 mm 3 mps 757 mmHg 69%
17:00 +23°C° 0.1 mm 1 mps 757 mmHg 73%
18:00 +21°C° 0.1 mm 2 mps 757 mmHg 74%
19:00 +21°C° 0.1 mm 2 mps 756 mmHg 76%
20:00 +20°C° 0.1 mm 3 mps 756 mmHg 77%
21:00 +20°C° 0.3 mm 3 mps 756 mmHg 80%
22:00 +19°C° 0.3 mm 3 mps 756 mmHg 83%
23:00 +19°C° 0.3 mm 3 mps 756 mmHg 86%

Tomorrow, 20 June, Sunday

Time Temperature Precipitation Wind Pressure Humidity
00:00 +19°C° 0.3 mm 3 mps 755 mmHg 87%
01:00 +19°C° 0.3 mm 4 mps 755 mmHg 88%
02:00 +19°C° 0.3 mm 4 mps 755 mmHg 89%
03:00 +19°C° 0.4 mm 4 mps 754 mmHg 90%
04:00 +19°C° 0.4 mm 4 mps 754 mmHg 90%
05:00 +19°C° 0.4 mm 4 mps 754 mmHg 91%
06:00 +20°C° 0.1 mm 4 mps 754 mmHg 88%
07:00 +21°C° 0.1 mm 3 mps 754 mmHg 84%
08:00 +24°C° 0.1 mm 3 mps 754 mmHg 81%
09:00 +24°C° 0.6 mm 3 mps 754 mmHg 78%
10:00 +25°C° 0.6 mm 3 mps 754 mmHg 75%
11:00 +26°C° 0.6 mm 2 mps 754 mmHg 72%
12:00 +26°C° 1.5 mm 2 mps 754 mmHg 70%
13:00 +26°C° 1.5 mm 3 mps 753 mmHg 69%
14:00 +27°C° 1.5 mm 3 mps 753 mmHg 68%
15:00 +26°C° 0.9 mm 3 mps 753 mmHg 70%
16:00 +26°C° 0.9 mm 3 mps 753 mmHg 71%
17:00 +26°C° 0.9 mm 3 mps 753 mmHg 72%
18:00 +25°C° 0.2 mm 3 mps 753 mmHg 78%
19:00 +22°C° 0.2 mm 3 mps 753 mmHg 84%
20:00 +21°C° 0.2 mm 2 mps 753 mmHg 91%
21:00 +21°C° 0.2 mm 2 mps 753 mmHg 92%
22:00 +20°C° 0.2 mm 2 mps 753 mmHg 93%
23:00 +20°C° 0.2 mm 2 mps 754 mmHg 94%

Day after tomorrow, 21 June, Monday

Time Temperature Precipitation Wind Pressure Humidity
00:00 +20°C° 0 mm 2 mps 754 mmHg 93%
01:00 +20°C° 0 mm 1 mps 753 mmHg 92%
02:00 +20°C° 0 mm 1 mps 753 mmHg 92%
03:00 +20°C° 0 mm 1 mps 753 mmHg 91%
04:00 +20°C° 0 mm 1 mps 754 mmHg 91%
05:00 +18°C° 0 mm 0 mps 754 mmHg 91%
06:00 +22°C° 0 mm 1 mps 754 mmHg 85%
07:00 +23°C° 0 mm 1 mps 754 mmHg 80%
08:00 +24°C° 0 mm 2 mps 754 mmHg 74%
09:00 +25°C° 0 mm 2 mps 754 mmHg 69%
10:00 +27°C° 0 mm 3 mps 754 mmHg 64%
11:00 +28°C° 0 mm 3 mps 754 mmHg 59%
12:00 +28°C° 0 mm 3 mps 754 mmHg 57%
13:00 +28°C° 0 mm 4 mps 754 mmHg 56%
14:00 +29°C° 0 mm 4 mps 754 mmHg 55%
15:00 +28°C° 0 mm 4 mps 754 mmHg 58%
16:00 +27°C° 0 mm 4 mps 754 mmHg 61%
17:00 +27°C° 0 mm 4 mps 754 mmHg 64%
18:00 +26°C° 0 mm 4 mps 754 mmHg 70%
19:00 +24°C° 0 mm 3 mps 754 mmHg 75%
20:00 +22°C° 0 mm 3 mps 754 mmHg 81%
21:00 +22°C° 0 mm 3 mps 754 mmHg 82%
22:00 +21°C° 0 mm 2 mps 755 mmHg 83%
23:00 +21°C° 0 mm 2 mps 755 mmHg 84%

22 June, Tuesday

Time Temperature Precipitation Wind Pressure Humidity
00:00 +21°C° 0 mm 2 mps 755 mmHg 84%
01:00 +20°C° 0 mm 2 mps 755 mmHg 84%
02:00 +20°C° 0 mm 2 mps 754 mmHg 84%
03:00 +21°C° 0 mm 1 mps 754 mmHg 84%
04:00 +21°C° 0 mm 1 mps 754 mmHg 84%
05:00 +19°C° 0 mm 0 mps 754 mmHg 83%
06:00 +21°C° 0 mm 0 mps 754 mmHg 77%
07:00 +22°C° 0 mm 0 mps 755 mmHg 71%
08:00 +24°C° 0 mm 0 mps 755 mmHg 65%
09:00 +27°C° 0 mm 1 mps 755 mmHg 61%
10:00 +28°C° 0 mm 1 mps 755 mmHg 57%
11:00 +29°C° 0 mm 1 mps 755 mmHg 53%
12:00 +30°C° 0 mm 2 mps 755 mmHg 51%
13:00 +31°C° 0 mm 2 mps 755 mmHg 49%
14:00 +31°C° 0 mm 2 mps 754 mmHg 47%
15:00 +31°C° 0 mm 2 mps 754 mmHg 49%
16:00 +31°C° 0 mm 3 mps 754 mmHg 51%
17:00 +30°C° 0 mm 3 mps 754 mmHg 53%
18:00 +29°C° 0 mm 3 mps 754 mmHg 60%
19:00 +27°C° 0 mm 2 mps 755 mmHg 67%
20:00 +26°C° 0 mm 2 mps 755 mmHg 73%
21:00 +25°C° 0.1 mm 2 mps 755 mmHg 75%
22:00 +25°C° 0.1 mm 2 mps 755 mmHg 76%
23:00 +24°C° 0.1 mm 2 mps 755 mmHg 78%

23 June, Wednesday

Time Temperature Precipitation Wind Pressure Humidity
00:00 +24°C° 0 mm 1 mps 755 mmHg 79%
01:00 +24°C° 0 mm 1 mps 755 mmHg 80%
02:00 +23°C° 0 mm 1 mps 755 mmHg 82%
03:00 +23°C° 0 mm 1 mps 755 mmHg 82%
04:00 +24°C° 0 mm 1 mps 755 mmHg 82%
05:00 +24°C° 0 mm 1 mps 755 mmHg 82%
06:00 +25°C° 0 mm 1 mps 755 mmHg 76%
07:00 +27°C° 0 mm 2 mps 756 mmHg 70%
08:00 +29°C° 0 mm 2 mps 756 mmHg 64%
09:00 +30°C° 0 mm 2 mps 756 mmHg 58%
10:00 +31°C° 0 mm 2 mps 756 mmHg 53%
11:00 +32°C° 0 mm 2 mps 756 mmHg 48%
12:00 +34°C° 0 mm 2 mps 756 mmHg 47%
13:00 +34°C° 0 mm 3 mps 756 mmHg 46%
14:00 +34°C° 0 mm 3 mps 756 mmHg 46%
15:00 +33°C° 0.2 mm 3 mps 756 mmHg 51%
16:00 +31°C° 0.2 mm 3 mps 756 mmHg 57%
17:00 +30°C° 0.2 mm 3 mps 756 mmHg 62%
18:00 +29°C° 0.1 mm 2 mps 756 mmHg 66%
19:00 +28°C° 0.1 mm 2 mps 756 mmHg 70%
20:00 +27°C° 0.1 mm 2 mps 756 mmHg 73%
21:00 +27°C° 0 mm 2 mps 757 mmHg 75%
22:00 +26°C° 0 mm 2 mps 757 mmHg 78%
23:00 +25°C° 0 mm 2 mps 757 mmHg 80%

24 June, Thursday

Time Temperature Precipitation Wind Pressure Humidity
00:00 +25°C° 0 mm 2 mps 757 mmHg 81%
01:00 +24°C° 0 mm 1 mps 757 mmHg 83%
02:00 +24°C° 0 mm 1 mps 757 mmHg 84%
03:00 +24°C° 0.1 mm 1 mps 757 mmHg 84%
04:00 +24°C° 0.1 mm 1 mps 757 mmHg 84%
05:00 +24°C° 0.1 mm 1 mps 757 mmHg 84%
06:00 +25°C° 0 mm 1 mps 757 mmHg 78%
07:00 +27°C° 0 mm 2 mps 757 mmHg 71%
08:00 +29°C° 0 mm 2 mps 757 mmHg 65%
09:00 +30°C° 0 mm 2 mps 757 mmHg 60%
10:00 +31°C° 0 mm 2 mps 757 mmHg 55%
11:00 +32°C° 0 mm 2 mps 757 mmHg 50%
12:00 +34°C° 0 mm 2 mps 757 mmHg 48%
13:00 +35°C° 0 mm 2 mps 757 mmHg 45%
14:00 +35°C° 0 mm 2 mps 757 mmHg 43%
15:00 +34°C° 0.1 mm 2 mps 757 mmHg 47%
16:00 +32°C° 0.1 mm 2 mps 756 mmHg 51%
17:00 +31°C° 0.1 mm 2 mps 756 mmHg 55%
18:00 +30°C° 0.8 mm 2 mps 756 mmHg 61%
19:00 +28°C° 0.8 mm 2 mps 756 mmHg 68%
20:00 +27°C° 0.8 mm 2 mps 756 mmHg 74%
21:00 +26°C° 0.4 mm 2 mps 756 mmHg 76%
22:00 +26°C° 0.4 mm 2 mps 756 mmHg 78%
23:00 +25°C° 0.4 mm 1 mps 757 mmHg 80%
Show more